Location: Lake Mineral Wells State Park
(32.8157°N, 98.0290°W)
Time: 22:52:06
(UTC-05:00)

ISS - Visible Passes

Search period start: 18 March 2019 00:00
Search period end: 28 March 2019 00:00
Orbit: 406 x 411 km, 51.6° (Epoch: 19 March)

Date Brightness Start Highest point End Pass type
(mag) Time Alt. Az. Time Alt. Az. Time Alt. Az.
18 Mar -3.0 06:31:52 30° WSW 06:32:05 31° SW 06:35:01 10° SSE visible
18 Mar -1.3 21:29:54 10° SW 21:30:31 15° SSW 21:30:31 15° SSW visible
19 Mar -1.0 05:44:09 12° SE 05:44:09 12° SE 05:44:25 10° SE visible
19 Mar -2.8 20:39:21 10° S 20:42:13 28° SE 20:42:57 25° ESE visible
20 Mar -2.6 21:24:32 10° WSW 21:27:38 39° NW 21:28:01 37° NNW visible
21 Mar -3.8 20:33:17 10° SW 20:36:34 85° NW 20:39:52 10° NE visible
22 Mar -1.0 21:20:05 10° WNW 21:22:17 17° NNW 21:24:29 10° N visible
23 Mar -1.8 20:28:10 10° W 20:31:04 28° NW 20:33:58 10° NNE visible
25 Mar -0.9 20:24:03 10° WNW 20:25:42 13° NNW 20:27:21 10° N visible
